Home > Weather > Enugu > Past weeks

Flag for Nigeria Past Weather in Enugu, Nigeria — Yesterday and Last 2 Weeks

Now
79 °F

Partly sunny.


Feels Like: 82 °F
Forecast: 71 / 87 °F
Wind: 7 mph from West

Location: Malabo/Fernando Poo

Current Time: Jun 28, 2016 at 2:21:01 PM

Latest Report: Jun 28, 2016 at 1:00 PM


Visibility: N/A

Pressure: 30.01 "Hg

Humidity: 84%

Dew Point: 73 °F

Location of EnuguLocation

Past Weather in Enugu — Graph

°F

Enugu Temperature Yesterday

Maximum temperature yesterday: 82 °F (at 11:00 AM)
Minimum temperature yesterday: 73 °F (at 3:00 AM)
Average temperature yesterday: 77 °F

High & Low Weather Summary for the Past Weeks

 TemperatureHumidityPressure
High86 °F (Jun 14, 12:00 PM)94% (Jun 13, 9:00 PM)30.09 "Hg (Jun 13, 9:00 PM)
Low70 °F (Jun 17, 6:00 AM)58% (Jun 26, 3:00 PM)29.89 "Hg (Jun 18, 4:00 PM)
Average78 °F84%29.98 "Hg
* Reported Jun 13 3:00 PM — Jun 28 12:00 PM, Enugu, Weather by CustomWeather, © 2016

Note: Actual official high and low records may vary slightly from our data, if they occured in-between our weather recording intervals... More about our weather records

Advertising

Enugu Weather History for the Previous 24 Hours

Scroll right to see more
 ConditionsComfort  
Time TempWeatherWind HumidityBarometerVisibility
12:00 PM
Tue, Jun 28
81 °FPartly sunny.5 mph79%30.01 "HgN/A
11:00 AM81 °FMostly cloudy.3 mph79%30.04 "Hg5 mi
10:00 AM79 °FMostly cloudy.3 mph84%30.04 "Hg5 mi
9:00 AM77 °FDrizzle. Partly sunny.6 mph89%30.04 "Hg5 mi
8:00 AM75 °FDrizzle. Partly sunny.9 mph94%30.01 "Hg4 mi
7:00 AM75 °FBroken clouds.5 mph89%30.01 "HgN/A
6:00 AM75 °FPassing clouds.No wind89%30.01 "HgN/A
5:00 AM73 °FPassing clouds.3 mph94%30.01 "HgN/A
4:00 AM73 °FPassing clouds.No wind89%29.98 "HgN/A
3:00 AM73 °FPassing clouds.2 mph89%30.01 "HgN/A
2:00 AM73 °FPartly cloudy.No wind89%30.01 "HgN/A
1:00 AM73 °FPassing clouds.1 mph89%30.01 "HgN/A
12:00 AM73 °FPassing clouds.1 mph89%30.01 "HgN/A
11:00 PM
Mon, Jun 27
73 °FPassing clouds.2 mph94%30.01 "HgN/A
10:00 PM75 °FPassing clouds.2 mph89%30.01 "HgN/A
9:00 PM75 °FPassing clouds.3 mph83%30.01 "HgN/A
8:00 PM75 °FPassing clouds.3 mph89%29.98 "HgN/A
7:00 PM77 °FPassing clouds.5 mph79%29.95 "HgN/A
6:00 PM79 °FPassing clouds.3 mph74%29.95 "HgN/A
5:00 PM79 °FPassing clouds.3 mph79%29.95 "HgN/A
3:00 PM79 °FBroken clouds.8 mph84%29.95 "HgN/A
Weather by CustomWeather, © 2016

See weather overviewHow to use our weather pages